Louisa, VA

5:18 PM EST on February 22, 2017 (GMT -0500)
Louisa County-Freeman

Weather History for KLKU - May, 2012

Change the Weather History Date:

Tuesday, May 22, 2012

  Actual Average (KOMH) Record (KOMH)
Temperature  
Mean Temperature 72 °F -  
Max Temperature 80 °F 75 °F 91 °F (1960)
Min Temperature 64 °F 54 °F 35 °F (2002)
Cooling Degree Days 7    
Growing Degree Days 22 (Base 50)    
Moisture  
Dew Point 64 °F    
Average Humidity 83    
Maximum Humidity 100    
Minimum Humidity 58    
Precipitation  
Precipitation 0.29 in - - ()
Sea Level Pressure  
Sea Level Pressure 29.85 in    
Wind  
Wind Speed 1 mph (NNE)    
Max Wind Speed 13 mph    
Max Gust Speed -    
Visibility 7 miles    
Events Fog , Rain    
Averages and records for this station are not official NWS values.
T = Trace of Precipitation, MM = Missing Value Source: NWS Daily Summary

Daily Weather History Graph

Daily Weather History Graph

Search for Another Location

Airport or City:

Trip Planner

Search our weather history database for the weather conditions in past years. The results will help you decide how hot, cold, wet, or windy it might be!

Date:

Astronomy

May. 22, 2012 Rise Set
Actual Time 5:55 AM EDT 8:21 PM EDT
Civil Twilight 5:25 AM EDT 8:51 PM EDT
Nautical Twilight 4:48 AM EDT 9:29 PM EDT
Astronomical Twilight 4:07 AM EDT 10:10 PM EDT
Moon 7:05 AM EDT 9:58 PM EDT
Length of Visible Light 15h 26m
Length of Day
14h 25m
Waxing Crescent, 3% of the Moon is Illuminated
May 22
Waxing Crescent
May 28
First Quarter
Jun 4
Full
Jun 11
Last Quarter
Jun 19
New

Hourly Weather History & Observations

Time (EDT) Temp. Heat Index Dew Point Humidity Pressure Visibility Wind Dir Wind Speed Gust Speed Precip Events Conditions
12:35 AM 66.2 °F - 64.4 °F 94% 29.89 in 4.0 mi Calm Calm - N/A   Overcast
12:55 AM 68.0 °F - 66.2 °F 94% 29.89 in 10.0 mi Calm Calm - N/A   Overcast
1:15 AM 68.0 °F - 64.4 °F 88% 29.89 in 10.0 mi Calm Calm - N/A   Overcast
1:35 AM 68.0 °F - 64.4 °F 88% 29.89 in 7.0 mi Calm Calm - N/A   Overcast
1:55 AM 66.2 °F - 64.4 °F 94% 29.88 in 7.0 mi Calm Calm - N/A   Mostly Cloudy
2:15 AM 66.2 °F - 64.4 °F 94% 29.88 in 4.0 mi Calm Calm - N/A   Overcast
2:35 AM 66.2 °F - 64.4 °F 94% 29.88 in 7.0 mi Calm Calm - N/A   Overcast
2:55 AM 66.2 °F - 64.4 °F 94% 29.87 in 5.0 mi Calm Calm - N/A   Overcast
3:15 AM 66.2 °F - 62.6 °F 88% 29.86 in 1.8 mi Calm Calm - N/A   Mostly Cloudy
3:35 AM 64.4 °F - 62.6 °F 94% 29.85 in 0.5 mi Calm Calm - N/A Fog Fog
3:55 AM 64.4 °F - 62.6 °F 94% 29.85 in 0.2 mi Calm Calm - N/A Fog Fog
4:35 AM 64.4 °F - 62.6 °F 94% 29.84 in 0.2 mi Calm Calm - N/A Fog Fog
4:55 AM 64.4 °F - 62.6 °F 94% 29.84 in 0.5 mi Calm Calm - N/A Fog Fog
5:15 AM 64.4 °F - 62.6 °F 94% 29.84 in 0.8 mi Calm Calm - N/A   Overcast
5:35 AM 64.4 °F - 62.6 °F 94% 29.84 in 5.0 mi Calm Calm - N/A   Overcast
5:55 AM 64.4 °F - 64.4 °F 100% 29.84 in 5.0 mi Calm Calm - N/A   Overcast
6:15 AM 66.2 °F - 64.4 °F 94% 29.85 in 2.0 mi Calm Calm - N/A   Overcast
6:35 AM 66.2 °F - 64.4 °F 94% 29.86 in 0.5 mi Calm Calm - N/A Fog Fog
6:55 AM 66.2 °F - 64.4 °F 94% 29.86 in 0.2 mi Calm Calm - N/A Fog Fog
7:15 AM 66.2 °F - 64.4 °F 94% 29.86 in 0.2 mi Calm Calm - N/A Fog Fog
7:35 AM 66.2 °F - 64.4 °F 94% 29.87 in 0.2 mi Calm Calm - N/A Fog Fog
7:55 AM 66.2 °F - 64.4 °F 94% 29.87 in 0.2 mi Calm Calm - N/A Fog Fog
8:15 AM 66.2 °F - 64.4 °F 94% 29.88 in 7.0 mi NNE 3.5 mph - N/A   Overcast
8:35 AM 68.0 °F - 66.2 °F 94% 29.88 in 10.0 mi Calm Calm - N/A   Overcast
8:55 AM 69.8 °F - 66.2 °F 88% 29.88 in 10.0 mi North 3.5 mph - N/A   Overcast
9:35 AM 71.6 °F - 64.4 °F 78% 29.87 in 10.0 mi North 5.8 mph - N/A   Scattered Clouds
9:55 AM 71.6 °F - 66.2 °F 83% 29.88 in 10.0 mi Calm Calm - N/A   Scattered Clouds
10:15 AM 71.6 °F - 64.4 °F 78% 29.88 in 10.0 mi Calm Calm - N/A   Scattered Clouds
10:35 AM 73.4 °F - 64.4 °F 73% 29.87 in 10.0 mi North 3.5 mph - N/A   Mostly Cloudy
10:55 AM 73.4 °F - 64.4 °F 73% 29.87 in 10.0 mi ENE 3.5 mph - N/A   Scattered Clouds
11:15 AM 73.4 °F - 64.4 °F 73% 29.88 in 10.0 mi North 5.8 mph - N/A   Mostly Cloudy
11:35 AM 73.4 °F - 64.4 °F 73% 29.88 in 10.0 mi NNW 3.5 mph - N/A   Overcast
11:55 AM 73.4 °F - 64.4 °F 73% 29.88 in 10.0 mi Calm Calm - N/A   Mostly Cloudy
12:15 PM 75.2 °F - 64.4 °F 69% 29.87 in 10.0 mi Calm Calm - N/A   Scattered Clouds
12:35 PM 77.0 °F - 66.2 °F 69% 29.87 in 10.0 mi Calm Calm - N/A   Scattered Clouds
12:55 PM 73.4 °F - 64.4 °F 73% 29.86 in 10.0 mi Calm Calm - N/A   Mostly Cloudy
1:15 PM 77.0 °F - 66.2 °F 69% 29.86 in 10.0 mi Calm Calm - N/A   Scattered Clouds
1:35 PM 75.2 °F - 64.4 °F 69% 29.85 in 10.0 mi Calm Calm - N/A   Scattered Clouds
1:55 PM 75.2 °F - 64.4 °F 69% 29.84 in 10.0 mi Calm Calm - N/A   Mostly Cloudy
2:15 PM 75.2 °F - 64.4 °F 69% 29.84 in 10.0 mi Calm Calm - N/A   Scattered Clouds
2:35 PM 77.0 °F - 64.4 °F 65% 29.83 in 10.0 mi South 3.5 mph - N/A   Scattered Clouds
2:55 PM 78.8 °F - 64.4 °F 61% 29.82 in 10.0 mi Calm Calm - N/A   Scattered Clouds
3:15 PM 80.6 °F 82.3 °F 64.4 °F 58% 29.81 in 10.0 mi NNE 3.5 mph - N/A   Scattered Clouds
3:35 PM 78.8 °F - 64.4 °F 61% 29.81 in 10.0 mi Calm Calm - N/A   Scattered Clouds
3:55 PM 80.6 °F 82.3 °F 64.4 °F 58% 29.81 in 10.0 mi Calm Calm - N/A   Scattered Clouds
4:35 PM 78.8 °F - 64.4 °F 61% 29.79 in 10.0 mi ESE 3.5 mph - N/A   Scattered Clouds
4:55 PM 78.8 °F - 64.4 °F 61% 29.80 in 10.0 mi East 3.5 mph - N/A   Mostly Cloudy
5:35 PM 78.8 °F - 66.2 °F 65% 29.80 in 10.0 mi East 5.8 mph - N/A   Clear
5:55 PM 78.8 °F - 64.4 °F 61% 29.80 in 10.0 mi Calm Calm - N/A   Scattered Clouds
6:35 PM 71.6 °F - 68.0 °F 88% 29.81 in 10.0 mi SW 3.5 mph - 0.09 in Rain Light Rain
6:55 PM 71.6 °F - 68.0 °F 88% 29.81 in 10.0 mi ENE 12.7 mph - 0.10 in Rain Light Rain
7:15 PM 69.8 °F - 64.4 °F 83% 29.81 in 10.0 mi ENE 4.6 mph - N/A   Scattered Clouds
7:35 PM 68.0 °F - 64.4 °F 88% 29.81 in 10.0 mi East 3.5 mph - N/A   Scattered Clouds
7:55 PM 68.0 °F - 64.4 °F 88% 29.82 in 10.0 mi Calm Calm - N/A   Clear
8:15 PM 66.2 °F - 64.4 °F 94% 29.83 in 7.0 mi Calm Calm - N/A   Clear
8:35 PM 66.2 °F - 64.4 °F 94% 29.83 in 5.0 mi Calm Calm - N/A Rain Light Rain
8:55 PM 66.2 °F - 64.4 °F 94% 29.84 in 5.0 mi Calm Calm - N/A Rain Light Rain
9:15 PM 68.0 °F - 64.4 °F 88% 29.84 in 7.0 mi Calm Calm - 0.01 in Rain Light Rain
9:35 PM 66.2 °F - 64.4 °F 94% 29.85 in 7.0 mi Calm Calm - 0.02 in Rain Light Rain
9:55 PM 68.0 °F - 64.4 °F 88% 29.85 in 5.0 mi Calm Calm - 0.02 in Rain Light Rain
10:15 PM 68.0 °F - 66.2 °F 94% 29.85 in 7.0 mi Calm Calm - 0.02 in Rain Light Rain
10:35 PM 68.0 °F - 66.2 °F 94% 29.86 in 7.0 mi SSW 5.8 mph - 0.04 in Rain Light Rain
10:55 PM 66.2 °F - 64.4 °F 94% 29.86 in 10.0 mi SW 4.6 mph - 0.06 in Rain Light Rain
11:15 PM 66.2 °F - 62.6 °F 88% 29.88 in 10.0 mi West 8.1 mph - 0.06 in Rain Rain
11:35 PM 66.2 °F - 62.6 °F 88% 29.88 in 10.0 mi WSW 3.5 mph - 0.10 in Rain Rain
11:55 PM 66.2 °F - 62.6 °F 88% 29.86 in 7.0 mi Calm Calm - 0.11 in Rain Light Rain